N8QF-1 Weather Reports


Display with metric or nautical units.
time (UTC)temp
F
wind
direction
speed
MPH
gust
MPH
rain 1hr
in
rain 24hr
in
rain mn
in
humidity
%
barometer
mb
20260509115202 55 160 0.0 0.0 0.07 0.02 0.32 96 1008.2
20260509114702 55 160 0.0 0.0 0.07 0.02 0.32 95 1008.0
20260509114201 55 160 0.0 0.0 0.07 0.02 0.32 95 1007.7
20260509113701 55 160 0.0 0.0 0.07 0.02 0.32 95 1007.7
20260509113200 55 160 0.0 0.0 0.07 0.02 0.32 95 1007.7
20260509112700 55 160 0.0 0.0 0.07 0.02 0.32 95 1007.7
20260509112159 55 160 0.0 3.0 0.07 0.02 0.32 95 1007.7
20260509111659 55 160 1.0 7.0 0.07 0.02 0.32 95 1007.8
20260509110658 55 170 0.0 0.0 0.07 0.02 0.32 96 1007.9
20260509110157 55 170 0.0 0.0 0.07 0.02 0.32 96 1007.9
20260509105812 55 170 0.0 4.0 0.07 0.02 0.32 96 1008.0
20260509105657 55 170 0.0 4.0 0.07 0.02 0.32 96 1008.0
20260509105156 55 197 3.0 8.0 0.07 0.02 0.31 96 1008.2
20260509104656 55 212 4.0 8.0 0.07 0.02 0.31 96 1008.2
20260509104155 55 212 1.0 9.0 0.07 0.02 0.31 96 1008.3
20260509103154 55 163 3.0 7.0 0.07 0.02 0.30 96 1008.2
20260509102651 55 183 2.0 3.0 0.07 0.02 0.30 96 1008.3
20260509101650 55 187 2.0 8.0 0.07 0.02 0.29 96 1008.0
20260509101150 55 155 6.0 8.0 0.07 0.02 0.28 96 1008.0
20260509100649 55 186 0.0 6.0 0.07 0.02 0.27 96 1008.2
20260509100149 55 225 2.0 6.0 0.07 0.02 0.26 96 1008.3
20260509095648 55 208 1.0 6.0 0.07 0.02 0.25 95 1008.4
20260509095148 55 226 0.0 5.0 0.05 0.02 0.24 95 1008.4
20260509094647 55 195 3.0 6.0 0.05 0.02 0.23 95 1008.4
20260509094147 55 198 0.0 4.0 0.05 0.02 0.23 95 1008.4
20260509093646 55 197 3.0 6.0 0.05 0.02 0.22 95 1008.4
20260509093146 55 187 3.0 5.0 0.05 0.02 0.21 95 1008.6
20260509092646 55 146 0.0 0.0 0.05 0.02 0.21 94 1008.5
20260509092145 56 146 0.0 5.0 0.05 0.02 0.21 94 1008.6
20260509091644 56 146 3.0 5.0 0.05 0.02 0.20 94 1008.5
20260509091144 56 181 2.0 4.0 0.05 0.02 0.19 94 1008.6
20260509090643 56 165 1.0 6.0 0.05 0.02 0.19 94 1008.7
20260509090143 56 204 2.0 6.0 0.05 0.02 0.18 94 1008.8
20260509085642 56 229 1.0 7.0 0.05 0.02 0.17 94 1008.8
20260509085142 56 233 0.0 5.0 0.01 0.02 0.17 94 1008.9
20260509084641 56 222 2.0 2.0 0.01 0.02 0.16 94 1008.9
20260509084140 56 203 0.0 4.0 0.01 0.02 0.16 94 1009.0
20260509083640 56 221 2.0 7.0 0.01 0.02 0.15 94 1009.1
20260509083139 56 238 4.0 7.0 0.01 0.02 0.15 94 1009.1
20260509082639 56 231 3.0 5.0 0.01 0.02 0.14 94 1009.1
20260509082138 56 235 1.0 4.0 0.01 0.02 0.14 94 1009.1
20260509081638 56 290 3.0 7.0 0.01 0.02 0.13 94 1009.2
20260509080634 56 217 2.0 6.0 0.01 0.02 0.13 94 1009.1
20260509080133 56 255 1.0 5.0 0.01 0.02 0.13 94 1009.1
20260509075631 56 217 5.0 7.0 0.01 0.02 0.12 94 1009.0
20260509075129 56 222 0.0 6.0 0.07 0.02 0.12 94 1008.9
20260509074629 56 221 3.0 6.0 0.07 0.02 0.12 94 1008.8
20260509074128 56 195 3.0 4.0 0.07 0.02 0.12 94 1008.9
20260509073628 56 246 1.0 3.0 0.07 0.02 0.12 93 1008.9
20260509073127 56 204 2.0 3.0 0.07 0.02 0.12 93 1009.0
20260509070620 56 281 2.0 7.0 0.07 0.02 0.11 93 1009.5
20260509070119 56 245 3.0 6.0 0.07 0.02 0.11 93 1009.5
20260509065618 56 242 4.0 8.0 0.07 0.02 0.11 93 1009.6
20260509065118 56 252 4.0 7.0 0.04 0.02 0.10 93 1009.6
20260509064617 56 243 4.0 8.0 0.04 0.02 0.10 93 1009.7
20260509064117 56 248 4.0 8.0 0.04 0.02 0.10 94 1009.8
20260509063615 56 304 5.0 9.0 0.04 0.02 0.10 94 1009.8
20260509063115 56 270 3.0 5.0 0.04 0.02 0.09 94 1009.8
20260509062613 56 287 4.0 8.0 0.04 0.02 0.08 94 1009.9
20260509062113 56 281 3.0 5.0 0.04 0.02 0.08 94 1009.9
20260509061611 56 316 2.0 4.0 0.04 0.02 0.07 94 1009.7
20260509061111 56 295 3.0 5.0 0.04 0.02 0.06 94 1009.8
20260509060610 56 335 4.0 7.0 0.04 0.02 0.05 94 1009.7
20260509060110 56 340 4.0 6.0 0.04 0.02 0.05 94 1009.6
20260509055609 56 20 0.0 5.0 0.04 0.02 0.04 94 1009.5
20260509055109 56 333 3.0 6.0 0.02 0.02 0.04 94 1009.8
20260509054608 56 325 4.0 7.0 0.02 0.02 0.04 94 1009.8
20260509053607 56 7 1.0 3.0 0.02 0.02 0.03 93 1009.9
20260509053105 56 253 0.0 0.0 0.02 0.02 0.02 92 1010.0
20260509052604 56 253 0.0 0.0 0.02 0.02 0.02 92 1010.1
20260509051601 56 253 0.0 0.0 0.02 0.02 0.01 91 1010.1
20260509051100 56 253 0.0 0.0 0.02 0.02 0.01 90 1010.1
20260509050600 56 253 0.0 0.0 0.02 0.02 0.00 90 1010.1
20260509050059 56 253 0.0 0.0 0.02 0.02 0.00 90 1010.0
20260509045559 56 253 0.0 0.0 0.02 0.02 0.00 90 1010.2
20260509045058 56 314 0.0 0.0 0.00 0.00 0.01 90 1010.3
20260509044558 56 314 0.0 0.0 0.00 0.00 0.01 90 1010.2
20260509043056 56 314 0.0 0.0 0.00 0.00 0.01 90 1010.2
20260509042556 56 314 0.0 0.0 0.00 0.00 0.01 90 1010.1
20260509042055 56 314 0.0 1.0 0.00 0.00 0.01 91 1010.2
20260509041555 56 345 0.0 4.0 0.00 0.00 0.01 90 1010.3
20260509041054 56 280 0.0 0.0 0.00 0.00 0.00 90 1010.3
20260509040553 56 280 0.0 2.0 0.00 0.00 0.00 90 1010.4
20260509035052 56 295 1.0 1.0 0.00 0.00 0.00 88 1010.5
20260509034552 57 277 0.0 4.0 0.00 0.00 0.00 87 1010.5
20260509034051 57 291 0.0 3.0 0.00 0.00 0.00 87 1010.5
20260509033550 57 281 3.0 3.0 0.00 0.00 0.00 86 1010.5
20260509033050 57 315 0.0 2.0 0.00 0.00 0.00 86 1010.5
20260509032549 57 7 0.0 1.0 0.00 0.00 0.00 86 1010.5
20260509032049 57 274 1.0 4.0 0.00 0.00 0.00 85 1010.6
20260509031548 57 298 3.0 5.0 0.00 0.00 0.00 85 1010.5
20260509031048 57 271 3.0 5.0 0.00 0.00 0.00 85 1010.6
20260509030547 57 325 3.0 4.0 0.00 0.00 0.00 84 1010.6
20260509030047 57 319 4.0 7.0 0.00 0.00 0.00 84 1010.6
20260509025546 57 321 2.0 4.0 0.00 0.00 0.00 84 1010.7
20260509025047 57 321 2.0 3.0 0.00 0.00 0.00 83 1010.7
20260509024545 57 338 3.0 6.0 0.00 0.00 0.00 83 1010.6
20260509024045 57 356 4.0 6.0 0.00 0.00 0.00 82 1010.7
20260509023545 58 339 2.0 4.0 0.00 0.00 0.00 81 1010.8
20260509023043 58 302 2.0 5.0 0.00 0.00 0.00 80 1010.9
20260509022542 58 278 3.0 6.0 0.00 0.00 0.00 80 1011.0
20260509022041 58 291 3.0 4.0 0.00 0.00 0.00 79 1010.8
20260509021541 58 294 0.0 0.0 0.00 0.00 0.00 77 1010.7
20260509021040 58 294 0.0 0.0 0.00 0.00 0.00 78 1010.6
20260509020540 58 294 0.0 0.0 0.00 0.00 0.00 78 1010.5
20260509020039 58 294 0.0 0.0 0.00 0.00 0.00 77 1010.4
20260509015539 59 294 0.0 0.0 0.00 0.00 0.00 78 1010.4
20260509015038 59 294 0.0 0.0 0.00 0.00 0.00 74 1010.4
20260509014538 59 294 0.0 0.0 0.00 0.00 0.00 73 1010.3
20260509014037 59 294 0.0 4.0 0.00 0.00 0.00 72 1010.3
20260509013537 59 294 0.0 7.0 0.00 0.00 0.00 72 1010.4
20260509013036 59 352 5.0 6.0 0.00 0.00 0.00 73 1010.4
20260509012536 59 350 1.0 4.0 0.00 0.00 0.00 72 1010.3
20260509012035 59 262 1.0 6.0 0.00 0.00 0.00 71 1010.3
20260509011535 60 21 4.0 8.0 0.00 0.00 0.00 70 1010.2
20260509011034 60 17 6.0 9.0 0.00 0.00 0.00 70 1010.1
20260509005533 61 309 5.0 7.0 0.00 0.00 0.00 69 1010.2
20260509004530 61 347 4.0 9.0 0.00 0.00 0.00 69 1010.0
20260509004029 61 311 6.0 0.0 0.00 0.00 0.00 69 1009.9
20260509003528 60 329 0.0 0.0 0.00 0.00 0.00 75 1009.6
20260509003028 61 329 0.0 0.0 0.00 0.00 0.00 72 1009.7
20260509002527 61 329 0.0 0.0 0.00 0.00 0.00 73 1009.7
20260509002027 61 329 0.0 0.0 0.00 0.00 0.00 69 1009.7
20260509001526 61 329 0.0 0.0 0.00 0.00 0.00 71 1009.6
20260509001026 61 329 0.0 0.0 0.00 0.00 0.00 70 1009.6
20260509000525 61 329 0.0 0.0 0.00 0.00 0.00 71 1009.7
20260509000025 61 329 0.0 0.0 0.00 0.00 0.00 71 1009.7
20260508235524 61 329 0.0 0.0 0.00 0.00 0.00 70 1009.6
20260508235024 61 329 0.0 0.0 0.00 0.00 0.00 68 1009.6
20260508234022 61 329 0.0 0.0 0.00 0.00 0.00 69 1009.5
20260508233521 62 329 0.0 0.0 0.00 0.00 0.00 70 1009.6
20260508232520 63 329 0.0 0.0 0.00 0.00 0.00 65 1009.7
20260508232020 64 329 0.0 0.0 0.00 0.00 0.00 61 1009.7
20260508231519 65 329 0.0 0.0 0.00 0.00 0.00 61 1009.7
20260508230018 65 308 3.0 0.0 0.00 0.00 0.00 51 1009.5
20260508225517 65 318 0.0 1.0 0.00 0.00 0.00 50 1009.5
20260508225016 65 318 0.0 3.0 0.00 0.00 0.00 51 1009.5
20260508224516 66 318 1.0 2.0 0.00 0.00 0.00 50 1009.2
20260508224015 66 318 0.0 3.0 0.00 0.00 0.00 48 1009.1
20260508223515 66 315 0.0 0.0 0.00 0.00 0.00 47 1009.1
20260508223014 66 259 0.0 0.0 0.00 0.00 0.00 45 1009.2
20260508222514 67 259 0.0 2.0 0.00 0.00 0.00 44 1009.2
20260508221512 67 284 0.0 7.0 0.00 0.00 0.00 41 1009.3
20260508221011 67 266 4.0 5.0 0.00 0.00 0.00 40 1009.2
20260508220511 67 311 0.0 5.0 0.00 0.00 0.00 41 1009.3
20260508220010 67 212 1.0 7.0 0.00 0.00 0.00 40 1009.3
20260508215510 67 210 0.0 5.0 0.00 0.00 0.00 40 1009.3
20260508215009 67 225 4.0 5.0 0.00 0.00 0.00 40 1009.3
20260508214509 68 263 2.0 7.0 0.00 0.00 0.00 39 1009.2
20260508214008 67 211 4.0 7.0 0.00 0.00 0.00 39 1009.3
20260508213508 68 240 1.0 11.0 0.00 0.00 0.00 39 1009.2
20260508213007 67 242 3.0 10.0 0.00 0.00 0.00 38 1009.1
20260508212006 68 225 0.0 11.0 0.00 0.00 0.00 39 1009.5
20260508211505 67 203 6.0 7.0 0.00 0.00 0.00 37 1009.6
20260508211005 68 229 4.0 11.0 0.00 0.00 0.00 38 1009.5
20260508210504 68 229 5.0 10.0 0.00 0.00 0.00 37 1009.6
20260508210003 68 240 4.0 13.0 0.00 0.00 0.00 38 1009.6
20260508205002 67 256 10.0 14.0 0.00 0.00 0.00 37 1009.9
20260508204501 68 200 7.0 20.0 0.00 0.00 0.00 38 1010.0
20260508203500 68 256 6.0 15.0 0.00 0.00 0.00 39 1010.1
20260508202459 68 243 7.0 19.0 0.00 0.00 0.00 38 1010.3
20260508201959 67 246 9.0 15.0 0.00 0.00 0.00 37 1010.5
20260508201458 67 242 10.0 15.0 0.00 0.00 0.00 37 1010.4
20260508200958 67 238 10.0 13.0 0.00 0.00 0.00 37 1010.4
20260508200457 68 203 9.0 13.0 0.00 0.00 0.00 37 1010.4
20260508195957 67 256 5.0 17.0 0.00 0.00 0.00 37 1010.5
20260508195456 67 225 10.0 15.0 0.00 0.00 0.00 37 1010.5
20260508194956 67 225 8.0 16.0 0.00 0.00 0.00 37 1010.7
20260508194455 67 221 9.0 19.0 0.00 0.00 0.00 36 1010.7
20260508193955 68 232 9.0 16.0 0.00 0.00 0.00 36 1010.6
20260508193454 68 246 11.0 11.0 0.00 0.00 0.00 36 1010.6
20260508192953 68 236 7.0 16.0 0.00 0.00 0.00 36 1010.7
20260508192453 68 255 8.0 15.0 0.00 0.00 0.00 37 1010.7
20260508191952 68 274 10.0 17.0 0.00 0.00 0.00 36 1010.7
20260508191452 68 245 6.0 24.0 0.00 0.00 0.00 36 1010.8
20260508190951 68 208 14.0 18.0 0.00 0.00 0.00 36 1011.0
20260508185950 69 212 9.0 21.0 0.00 0.00 0.00 37 1011.0
20260508185450 69 257 9.0 14.0 0.00 0.00 0.00 37 1011.1
20260508184949 69 245 8.0 17.0 0.00 0.00 0.00 39 1011.3
20260508184448 68 228 10.0 18.0 0.00 0.00 0.00 38 1011.3
20260508183947 68 229 10.0 18.0 0.00 0.00 0.00 40 1011.3
20260508183447 68 256 8.0 14.0 0.00 0.00 0.00 40 1011.4
20260508182946 68 229 8.0 18.0 0.00 0.00 0.00 38 1011.4
20260508182445 69 190 7.0 16.0 0.00 0.00 0.00 41 1011.5
20260508181944 68 250 9.0 20.0 0.00 0.00 0.00 39 1011.7
20260508180443 67 255 5.0 18.0 0.00 0.00 0.00 40 1011.8
20260508175439 66 252 11.0 15.0 0.00 0.00 0.00 39 1012.1
20260508174939 67 232 10.0 13.0 0.00 0.00 0.00 40 1012.2
20260508174438 67 252 7.0 19.0 0.00 0.00 0.00 41 1012.1
20260508173938 66 253 10.0 13.0 0.00 0.00 0.00 40 1012.1
20260508173437 66 198 9.0 16.0 0.00 0.00 0.00 41 1012.2
20260508172937 66 239 9.0 19.0 0.00 0.00 0.00 40 1012.4
20260508172436 66 225 14.0 18.0 0.00 0.00 0.00 41 1012.6
20260508171936 66 243 6.0 15.0 0.00 0.00 0.00 41 1012.7
20260508171435 66 194 5.0 18.0 0.00 0.00 0.00 40 1012.7
20260508170935 66 219 11.0 15.0 0.00 0.00 0.00 41 1012.8
20260508170434 66 221 10.0 28.0 0.00 0.00 0.00 40 1012.8
20260508165934 66 236 9.0 17.0 0.00 0.00 0.00 40 1012.8
20260508164933 68 218 8.0 15.0 0.00 0.00 0.00 40 1013.1
20260508163932 66 186 9.0 15.0 0.00 0.00 0.00 40 1013.3
20260508163431 67 219 9.0 22.0 0.00 0.00 0.00 42 1013.2
20260508162430 66 203 12.0 22.0 0.00 0.00 0.00 41 1013.5
20260508161930 65 253 11.0 18.0 0.00 0.00 0.00 41 1013.4
20260508161429 65 218 11.0 18.0 0.00 0.00 0.00 44 1013.4
20260508160427 65 240 10.0 15.0 0.00 0.00 0.00 44 1013.5
20260508155926 64 224 10.0 23.0 0.00 0.00 0.00 44 1013.6
20260508155425 64 233 11.0 17.0 0.00 0.00 0.00 43 1013.6
20260508154924 64 215 11.0 22.0 0.00 0.00 0.00 45 1013.7
20260508154424 64 217 11.0 20.0 0.00 0.00 0.00 44 1013.7
20260508153924 64 256 12.0 19.0 0.00 0.00 0.00 45 1013.8
20260508153423 63 235 8.0 17.0 0.00 0.00 0.00 46 1013.8
20260508152922 63 211 11.0 18.0 0.00 0.00 0.00 46 1013.8
20260508152422 63 195 10.0 16.0 0.00 0.00 0.00 45 1013.8
20260508151921 63 246 9.0 16.0 0.00 0.00 0.00 46 1014.0
20260508151421 62 218 9.0 16.0 0.00 0.00 0.00 48 1014.0
20260508150920 62 233 7.0 16.0 0.00 0.00 0.00 48 1014.1
20260508150420 61 217 10.0 17.0 0.00 0.00 0.00 47 1014.2
20260508145919 61 235 12.0 18.0 0.00 0.00 0.00 47 1014.1
20260508145419 61 276 12.0 18.0 0.00 0.00 0.00 49 1014.2
20260508144918 61 242 9.0 17.0 0.00 0.00 0.00 48 1014.2
20260508144418 60 243 8.0 12.0 0.00 0.00 0.00 48 1014.2
20260508143917 60 229 8.0 13.0 0.00 0.00 0.00 50 1014.3
20260508142916 59 226 12.0 16.0 0.00 0.00 0.00 50 1014.4
20260508142415 58 215 10.0 16.0 0.00 0.00 0.00 51 1014.5
20260508141915 58 215 11.0 14.0 0.00 0.00 0.00 51 1014.6
20260508140914 57 222 11.0 17.0 0.00 0.00 0.00 51 1014.8
20260508140413 57 219 11.0 15.0 0.00 0.00 0.00 51 1014.7
20260508135913 57 255 9.0 18.0 0.00 0.00 0.00 52 1014.7
20260508135413 56 240 10.0 15.0 0.00 0.00 0.00 52 1014.7
20260508134912 57 231 9.0 21.0 0.00 0.00 0.00 52 1014.8
20260508134411 56 235 12.0 19.0 0.00 0.00 0.00 51 1014.8
20260508133909 56 242 6.0 17.0 0.00 0.00 0.00 52 1014.8
20260508133408 56 250 10.0 13.0 0.00 0.00 0.00 51 1014.8
20260508132908 56 252 7.0 20.0 0.00 0.00 0.00 52 1014.8
20260508132407 56 239 7.0 18.0 0.00 0.00 0.00 52 1014.7
20260508131406 56 222 5.0 16.0 0.00 0.00 0.00 52 1014.7
20260508130906 55 246 5.0 16.0 0.00 0.00 0.00 53 1014.7
20260508130404 55 238 9.0 15.0 0.00 0.00 0.00 51 1014.7
20260508125904 55 205 9.0 9.0 0.00 0.00 0.00 51 1014.7
20260508125403 55 203 3.0 11.0 0.00 0.00 0.00 53 1014.7
20260508124903 55 214 7.0 12.0 0.00 0.00 0.00 53 1014.7
20260508124402 55 201 3.0 8.0 0.00 0.00 0.00 55 1014.7
20260508123901 54 195 3.0 8.0 0.00 0.00 0.00 56 1014.6
20260508123401 54 221 3.0 7.0 0.00 0.00 0.00 58 1014.6
20260508122901 53 176 1.0 7.0 0.00 0.00 0.00 58 1014.6
20260508122400 53 203 2.0 6.0 0.00 0.00 0.00 59 1014.7
20260508121859 53 214 3.0 5.0 0.00 0.00 0.00 59 1014.7
20260508121359 52 187 3.0 5.0 0.00 0.00 0.00 61 1014.8
20260508120358 51 150 0.0 3.0 0.00 0.00 0.00 62 1014.6
20260508115857 51 167 1.0 7.0 0.00 0.00 0.00 62 1014.6
20260508115357 51 210 3.0 7.0 0.00 0.00 0.00 62 1014.5